User: anonymous   Login
Location: Vancouver
(49.2500°N, 123.1330°W)
Time: 16:55:24
(UTC-07:00)
Language:

Iridium 35 - Orbit

View from above orbital plane
View from above orbital plane
View from above satellite
View from above satellite

Ground track
Ground track

The orbit data is extracted from the following two-line orbital elements,

1 24966U 97056B   17082.80824573 +.00000195 +00000-0 +62492-4 0  9991
2 24966 086.4006 354.3951 0002178 083.5071 276.6372 14.34217369020011
Epoch (UTC): 23 March 2017 19:23:52
Eccentricity: 0.0002178
inclination: 86.4006°
perigee height: 776 km
apogee height: 779 km
right ascension of ascending node: 354.3951°
argument of perigee: 83.5071°
revolutions per day: 14.34217369
mean anomaly at epoch: 276.6372°
orbit number at epoch: 2001

The dashed part of the orbit path shows where the satellite is in the earth's shadow,  

DLR